Regional Weather Roundup
Issued by NWS Wakefield, VA

Home | Current Version | Previous Version | Graphics & Text | Print | Product List | Glossary On
Versions: 1 2 3 4 5 6 7 8 9 10 11 12 13 14 15 16 17 18 19 20 21 22 23 24 25 26 27 28 29 30 31 32 33 34 35 36 37 38 39 40 41 42 43 44 45 46 47 48 49 50
000
ASUS41 KAKQ 271014
RWRAKQ

REGIONAL WEATHER ROUNDUP
NATIONAL WEATHER SERVICE WAKEFIELD VA
600 AM EDT FRI MAR 27 2015

Note: "fair" indicates few or no clouds below 12,000 feet with no
significant weather and/or obstructions to visibility. * = Denotes
station may not report precipitation (e.g., rain,snow,etc.),
thunder or fog.

VAZ042-051-052>054-056-271100-
NORTHERN VIRGINIA

CITY           SKY/WX    TMP DP  RH WIND       PRES   REMARKS
WASH NATIONAL  LGT RAIN  44  37  76 N13       29.81F
DULLES         LGT RAIN  42  39  89 NE7       29.79F
FORT BELVOIR   LGT RAIN  43  39  87 VRB5      29.79F
QUANTICO       LGT RAIN  44  38  79 N14       29.80F
FREDERICKSBRG* RAIN      44  44  99 N12       29.77F
STAFFORD*      RAIN      41  32  70 N10       29.82F
WARRENTON      LGT RAIN  43  43 100 NE5       29.77F
CULPEPER*      LGT RAIN  43  41  93 CALM      29.79F
MANASSAS*      CLOUDY    43  43 100 NE3       29.79F
LEESBURG*      LGT RAIN  43  43 100 NE3       29.80F
WINCHESTER     CLOUDY    43  36  75 N7        29.78F
FRONT ROYAL*   CLOUDY    41  41 100 CALM      29.80R
LURAY*         CLOUDY    43  43 100 NW3       29.79R
$$

VAZ048-049-060>072-079>083-271100-
CENTRAL AND SOUTH CENTRAL VIRGINIA

CITY           SKY/WX    TMP DP  RH WIND       PRES   REMARKS
RICHMOND       LGT RAIN  48  40  73 N17G25    29.75S
CHESTERFIELD*  CLOUDY    48  32  53 N8        29.76S
PETERSBURG*    CLOUDY    49  40  71 N12G23    29.75S
HANOVER        CLOUDY    46  41  82 N10G18    29.78S
TAPPAHANNOCK*  CLOUDY    47  38  73 NW12G20   29.76F
QUINTON*       CLOUDY    46  39  76 N10G24    29.75S
CHARLOTTSVILLE LGT RAIN  43  41  93 CALM      29.77S
GORDONSVILLE*  CLOUDY    42  40  94 NE7       29.78R
ORANGE*        RAIN      43  41  93 N6        29.80R
LOUISA*        LGT RAIN  45  41  87 N10       29.77R
BUMPASS*       CLOUDY    42  40  91 N6        29.77F
FARMVILLE*     RAIN      47  47 100 N10G18    29.74S
CREWE*         CLOUDY    46  42  84 MISG      29.74S
FORT PICKETT*  CLOUDY    47  40  76 NE18      29.73S
CHASE CITY*    CLOUDY    49  47  92 N7G16     29.73R
CLARKSVILLE*   CLOUDY    50  43  76 N12G18    29.72R
SOUTH HILL*    CLOUDY    49  41  74 N16G24    29.77R
LAWRENCEVILLE* CLOUDY    49  41  74 N7G21     29.71R
EMPORIA*       CLOUDY    48  43  81 NW16G25   29.73R
$$

VAZ088>098-271100-
SOUTHEAST VIRGINIA

CITY           SKY/WX    TMP DP  RH WIND       PRES   REMARKS
NORFOLK        CLOUDY    49  42  77 N20G29    29.69S
VIRGINIA BEACH LGT RAIN  50  41  71 N26G37    29.70R
NORFOLK NAVAL  CLOUDY    52  44  74 N18G25    29.72R
WEST POINT*    CLOUDY    50  42  71 N10G17    29.75S
SALUDA*        CLOUDY    47  42  81 N18G24    29.73S
NEWPORT NEWS   CLOUDY    53  42  66 N15G24    29.71
LANGLEY AFB    CLOUDY    51  44  78 N16G24    29.70R
FORT EUSTIS    CLOUDY    50  43  76 NE13G23   29.70R
WILLIAMSBURG*  CLOUDY    52  46  82 N13G22    29.73R
HR EXEC AP*    CLOUDY    54  46  76 NE7       29.71R
FRANKLIN*      CLOUDY    53  46  79 N12G18    29.70R
WAKEFIELD      CLOUDY    50  43  77 N9G25     29.71R
$$

VAZ020-022-025-037-045-271100-
WEST CENTRAL AND SOUTHWEST VIRGINIA

CITY           SKY/WX    TMP DP  RH WIND       PRES   REMARKS
STAUNTON*      LGT RAIN  42  39  90 NE6       29.78S
WAYNESBORO*    CLOUDY    40  38  95 CALM      29.75F
HOT SPRINGS VA FOG       33  33 100 NW9G18    29.69S VSB 1/2
LYNCHBURG      LGT RAIN  44  43  96 VRB6      29.76R FOG
DANVILLE       CLOUDY    52  44  74 N12       29.73R
SOUTH BOSTON*  CLOUDY    49  44  83 NE8G17    29.73S
MARTINSVILLE   LGT RAIN  46  42  88 N10       29.78R
ROANOKE        LGT RAIN  43  38  82 NW8       29.79R
BLACKSBURG     LGT RAIN  37  36  93 W5        29.78F
DUBLIN*        RAIN      40  37  89 NW8       29.78S
MARION*        DRIZZLE   39  34  82 NW6       29.79S
HILLSVILLE*    MIX PCPN  37  36  96 N12       29.74S
RICHLANDS*     FOG       35  33  94 N9        29.79S VSB 3/4
WISE*          LGT RAIN  36  36 100 N8        29.81F VSB 1
ABINGDON*      CLOUDY    41  38  89 CALM      29.78S
$$

MDZ021>025-VAZ099-100-271100-
SOUTHERN MARYLAND AND THE DELMARVA PENINSULA

CITY           SKY/WX    TMP DP  RH WIND       PRES   REMARKS
PATUXENT RIVER CLOUDY    46  41  82 N18       29.75F
BAY BRIDGE APT DRIZZLE   41  39  93 N13G20    29.80S
LEONARDTOWN    CLOUDY    45  41  87 N5        29.77S
DOVER          MIX PCPN  43  43 100 NW17G23   29.77R
GEORGETOWN     CLOUDY    45  41  86 N10G20    29.75R
EASTON         MOCLDY    45  45 100 N13G22    29.81S
CAMBRIDGE      CLOUDY    46  41  81 N18       29.76S
SALISBURY      LGT RAIN  45  42  89 N12G23    29.73R
OCEAN CITY     CLOUDY    47  41  80 N17G26    29.72R
WALLOPS ISLAND CLOUDY    47  43  86 N17G28    29.72R
ACCOMACK*      CLOUDY    46  41  81 N17G30    29.71S
$$

NCZ012>017-030>032-271100-
NORTH CENTRAL AND EASTERN NORTH CAROLINA

CITY           SKY/WX    TMP DP  RH WIND       PRES   REMARKS
ROANOKE RAPIDS CLOUDY    55  50  82 N21       29.66R
RALEIGH        CLOUDY    59  50  72 N10G21    29.67R
ELIZABETH CITY HVY RAIN  62  58  86 SW13      29.66R FOG
AHOSKIE*       CLOUDY    60  56  86 S5        29.64S
EDENTON*       HVY RAIN  60  58  94 SW9       29.66S
CURRITUCK*     LGT RAIN  64  56  74 S5        29.65F
KILL DEVIL HLS LGT RAIN  65  56  74 SW9G17    29.64S
MANTEO         CLOUDY    64  56  75 SW17      29.65F
CAPE HATTERAS  LGT RAIN  62  59  90 SW8       29.68S
TARBORO*       CLOUDY    63  57  80 S3        29.65S
GOLDSBORO      CLOUDY    63  62  98 S6        29.63F
WASHINGTON     LGT RAIN  61  59  93 SW7       29.67S
GREENVILLE     RAIN      61  59  94 S10       29.69S
NEW BERN       LGT RAIN  63  60  90 SW7       29.69S
WILMINGTON     LGT RAIN  63  61  93 S5        29.68F
$$

VAZ048-271100-
ELSEWHERE

CITY           SKY/WX    TMP DP  RH WIND       PRES   REMARKS
HARRISBURG PA  CLOUDY    41  36  82 N5        29.80S
BALTIMORE      LGT RAIN  39  36  89 N7        29.80F
ANNAPOLIS      LGT RAIN  42  39  89 N13       29.80R
ANDREWS AFB    LGT RAIN  41  39  93 N12G20    29.78F
PHILADELPHIA   LGT RAIN  41  36  82 N17       29.80S
HENDERSON NC   LGT RAIN  50  44  79 N13G22    29.71R
GREENSBORO     CLOUDY    52  39  61 N13G18    29.70S
ROCKY MOUNT    CLOUDY    63  58  83 S6        29.65S
$$

VAZ100-271100-
MARINE

STATION/POSITION TIME  TEMP    WIND        PRES    WAVE   SWELL
                       AIR SEA DIR/SP/G            HT/PER HT/PER
                 (UTC) (F)     (DEG/KT/KT) (MB)    (FT/S) (FT/S)
BRANDYWINE LGT   0900          350/ 21/ 24 1006.6R
CAPE MAY NJ      0900           CALM  /  4 1006.2R
LEWES DE         0900          340/ 22/ 25 1006.5R
15NM E FENWICK I 0950   42 40              1005.8R   7/10
OCEAN-CITY-INLET 0900          360/ 15/ 19 1005.2R
WACHAPREAGUE VA  0900          310/  6/ 16 1005.3R
THOMAS POINT MD  1000                        N/A
COVE POINT MD    0900          350/ 19/ 20 1007.9R
SOLOMONS ISLAND  0900      44                N/A
BISHOPS HEAD MD  0906          350/ 13/ 20   N/A
PINEY POINT MD   0900          360/ 18/ 20   N/A
CAMBRIDGE MD     0900          340/ 17/ 20 1007.8R
LEWISETTA VA     0900                      1007.3R
RAPPAHANNOCK LGT 0900          340/ 28/ 31 1006.1R
STINGRAY PT      1000   46 44   10/ 16/ 19   N/A     2/ 3
YORK RVR RNG VA  0900          350/ 20/ 23 1004.6S
YORKTOWN VA      0900          340/ 16/ 21 1005.4R
DOMINION TERM VA 0900           40/  7/ 13 1004.8R
KIPTOPEKE VA     0900          360/ 22/ 29   N/A
CHES BAY BRIDGE  0900          350/ 28/ 38 1004.6R
CAPE HENRY VA    0900          350/ 29/ 35 1003.4R
CHESAPEAKE LGHT  0900   49     350/ 23/ 25 1004.9R
WILLOUBY STN VA  0900           20/ 18/ 20 1005.8R
S CRANEY ISL VA  0900           30/ 16/ 20 1004.9R
CAPE HENRY BUOY  0928      44                N/A     4/ 9   2/11
1ST LANDING BUOY 1000   47     360/ 27/ 33 1005.4R   4/ 4
OFFSHORE WE BUOY 0911      41                N/A     6/ 9   5/ 9
64NM E OF VA BCH 0950   57 52  230/ 16/ 17 1002.8F   7/10   7/10
DUCK PIER NC     0900          220/ 11/ 13 1003.4F
44056 DUCK FRF   0911      42                N/A     4/ 9   2/11
OREGON INLET NC  0900          200/  8/  9 1004.5F
HATTERAS NC      0900          220/  6/ 10 1005.5F
CAPE LOOKOUT NC  1000   60     270/ 11/ 14 1005.1F
$$



USA.gov is the U.S. government's official web portal to all federal, state and local government web resources and services.